Overview Statistics Trail Chart Weather Telemetry Raw packets
 

This is the latest recevied weather packets stored in our database for station/object SQ5DCP-1. If no packets are shown the sender has not sent any weather packets the latest 10 day(s).

<< 80 81 82 83 84 85 86 >>
Time Temp. Humidity Pressure Rain* Wind** Luminosity Snow
1788085823 24.44° C 46% 1016.8 hPa 0 mm - - -
1788085521 23.89° C 47% 1016.9 hPa 0 mm - - -
1788085220 23.89° C 48% 1017 hPa 0 mm - - -
1788084918 23.89° C 50% 1017 hPa 0 mm - - -
1788084636 23.33° C 52% 1017 hPa 0 mm - - -
1788084334 23.33° C 52% 1017 hPa 0 mm - - -
1788084032 23.33° C 52% 1017.1 hPa 0 mm - - -
1788083730 22.78° C 52% 1017 hPa 0 mm - - -
1788083428 22.78° C 53% 1017.2 hPa 0 mm - - -
1788083125 22.22° C 57% 1017.2 hPa 0 mm - - -
1788082823 22.22° C 61% 1017.2 hPa 0 mm - - -
1788082522 21.67° C 61% 1017.3 hPa 0 mm - - -
1788082219 21.11° C 63% 1017.2 hPa 0 mm - - -
1788081917 21.11° C 62% 1017.3 hPa 0 mm - - -
1788081635 21.11° C 62% 1017.4 hPa 0 mm - - -
1788081333 21.11° C 61% 1017.3 hPa 0 mm - - -
1788081031 21.11° C 64% 1017.3 hPa 0 mm - - -
1788080729 21.11° C 64% 1017.3 hPa 0 mm - - -
1788080427 21.11° C 64% 1017.2 hPa 0 mm - - -
1788080124 21.11° C 64% 1017.2 hPa 0 mm - - -
1788079823 21.11° C 64% 1017.3 hPa 0 mm - - -
1788079520 21.11° C 64% 1017.3 hPa 0 mm - - -
1788079218 21.11° C 64% 1017.3 hPa 0 mm - - -
1788078916 21.11° C 66% 1017.3 hPa 0 mm - - -
1788078634 21.11° C 66% 1017.4 hPa 0 mm - - -

* Rain latest hour (hover to see other rain measurements)
** Current wind speed in m/s (hover to see current wind gust speed)